Hourly Data Report for February 06, 2019

All times are specified in Local Standard Time (LST). Add 1 hour to adjust for Daylight Saving Time where and when it is observed.

KELOWNA
BRITISH COLUMBIA
Current Station Operator: NAVCAN

49°57'26.000" N
119°22'40.000" W
433.10 m
1123939
71203
YLW

Download Data

Hourly Data (February 2019)
Hourly Data Report for February 6, 2019
TIME Temp Definition
°C
Dew Point Definition
°C
Rel Hum Definition
%
Wind Dir Definition
10's deg

Wind Spd Definition
km/h
Visibility Definition
km
Stn Press Definition
kPa
Hmdx Definition


Wind Chill Definition


Weather Definition


00:00 -17.5 -20.2 80 4 8 16.1 97.26   -23 LegendNANA
01:00 -17.8 -19.8 85 34 5 16.1 97.29   -22 LegendNANA
02:00 -17.7 -20.0 82 LegendMM 4 16.1 97.35   -21 LegendNANA
03:00 -18.2 -20.3 84 4 5 16.1 97.40   -22 LegendNANA
04:00 -18.5 -20.7 83 36 8 16.1 97.43   -24 LegendNANA
05:00 -19.0 -21.1 84 36 9 16.1 97.47   -26 LegendNANA
06:00 -19.2 -21.2 84 36 8 16.1 97.51   -25 LegendNANA
07:00 -19.4 -21.7 82 36 9 16.1 97.57   -26 LegendNANA
08:00 -18.6 -21.1 81 35 9 16.1 97.62   -25 LegendNANA
09:00 -15.8 -19.3 75   0 16.1 97.69     LegendNANA
10:00 -13.5 -18.1 69 LegendMM 4 16.1 97.72   -16 LegendNANA
11:00 -11.5 -16.6 66 34 15 16.1 97.73   -19 LegendNANA
12:00 -10.7 -17.0 60 34 11 16.1 97.71   -16 LegendNANA
13:00 -10.0 -16.5 59 34 18 16.1 97.69   -17 LegendNANA
14:00 -9.5 -16.0 60 35 18 16.1 97.67   -17 LegendNANA
15:00 -9.0 -16.0 57 34 21 16.1 97.68   -17 LegendNANA
16:00 -9.3 -16.5 56 32 15 16.1 97.69   -16 LegendNANA
17:00 -11.1 -16.5 65 35 11 16.1 97.70   -17 LegendNANA
18:00 -11.4 -16.9 64 LegendMM 5 16.1 97.74   -15 LegendNANA
19:00 -15.6 -18.6 78 4 8 16.1 97.78   -21 LegendNANA
20:00 -14.8 -18.1 76 2 5 16.1 97.80   -18 LegendNANA
21:00 -14.7 -18.5 73 3 5 16.1 97.83   -18 LegendNANA
22:00 -16.2 -18.5 82 LegendMM 4 16.1 97.89   -19 LegendNANA
23:00 -16.3 -18.6 82 2 5 16.1 97.91   -20 LegendNANA

Notes on Data Quality.

Legend

  • E = Estimated
  • M = Missing
  • NA = Not Available
Date modified: